TITAN 3C TRANSTAGE DEB, 27866

Orbit data source: Space-Track

TITAN 3C TRANSTAGE DEB, 27866 is space debris in HEO originally from a launch on Tue, 21 Dec 1965 UTC launched from the Air Force Eastern Test Range (AFETR). Debris objects in space refer to the collection of defunct objects orbiting the Earth. Examples of debris include non-operational satellites, rocket bodies, and fragments generated from explosions, collisions, or faulty payload assembly.

Loading next visibility...
Identifier
27866, 1965-108BM
Orbit
HEO
Country
Flag of USUS
Related business
Manufacturer
Unknown
Mission
Spacecraft
Bus & Motor
Unknown
Mass
Unknown
Launch date (UTC)
1965-12-21 (60 years ago)
Launch vehicle
Unknown
Launch site
Air Force Eastern Test Range (AFETR)
Object type
Payload
Rocket body
Debris
Shape & HBR
Unknown shape, 1.1 m
Radar Cross Section
Medium (>0.1 m² and <1 m²)

Expand to show TLE details & history
Last TLE update: 6 months ago

TLE from 6 months ago
0 TITAN 3C TRANSTAGE DEB
1 27866U 65108BM  25212.39418887  .00000048  00000-0  00000-0 0  9991
2 27866  26.5557 177.3990 6572473 243.7383 330.0060  2.60545382115409
Epoch: 2025-07-31T09:27Z
TLE epoch observation values (Epoch: 2025-07-31T09:27:37.918Z)
Latitude
18.051°
Longitude
-134.44465°
Altitude
9,456.535 km
Speed
5.699 km/s
True Right ascension
21h 06m 53s
True Declination
18° 00' 20"
Sunlit
Object was in daylight at epoch
Visualization orbit readout
Latitude
Unknown
Longitude
Unknown
Altitude
Unknown
Speed
Unknown
Apparent Right ascension
Unknown
Apparent Declination
Unknown
Sunlit
N/A
Visualization observer readout
Local Sidereal Time
21:41:04
Azimuth
Unknown
Elevation
Unknown
Doppler factor
Unknown
Orbital elements
Apogee altitude
30,598.723 km
Perigee altitude
1,269.435 km
Semi-major axis
22,312.216 km
Eccentricity
0.65725
Inclination
26.5557°
RAAN
177.399°
Arg. of periapsis
243.7383°
True anomaly
252.33192°
Mean anomaly
330.006°
Eccentric anomaly
296.22465°
Mean motion
0.65122 °/min
Orbital period
552.81 mins
BSTAR
0
Loading maneuver chart data...
Computing Atmospheric mass density...

Documentation

Showing up to 5 results
|